Cook, MN

2:41 PM CDT on July 23, 2017 (GMT -0500)
Cook Municipal

Weather History for KCQM - November, 2012

Change the Weather History Date:

Wednesday, November 21, 2012

  Actual Average Record
Temperature  
Mean Temperature 42 °F -  
Max Temperature 53 °F 30 °F 53 °F (2006)
Min Temperature 30 °F 16 °F -11 °F (2014)
Degree Days  
Heating Degree Days 24    
Moisture  
Dew Point 32 °F    
Average Humidity 72    
Maximum Humidity 93    
Minimum Humidity 50    
Precipitation  
Precipitation 0.00 in - - ()
Sea Level Pressure  
Sea Level Pressure 29.82 in    
Wind  
Wind Speed 3 mph (SSE)    
Max Wind Speed 7 mph    
Max Gust Speed 17 mph    
Visibility 10 miles    
Events      
Averages and records for this station are not official NWS values.
T = Trace of Precipitation, MM = Missing Value Source: NWS Daily Summary

Daily Weather History Graph

Daily Weather History Graph

Search for Another Location

Airport or City:

Trip Planner

Search our weather history database for the weather conditions in past years. The results will help you decide how hot, cold, wet, or windy it might be!

Date:

Astronomy

Nov. 21, 2012 Rise Set
Actual Time 7:26 AM CST 4:27 PM CST
Civil Twilight 6:51 AM CST 5:01 PM CST
Nautical Twilight 6:13 AM CST 5:39 PM CST
Astronomical Twilight 5:36 AM CST 6:16 PM CST
Moon 1:08 PM CST (11/21) 12:18 AM CST (11/21)
Length of Visible Light 10h 09m
Length of Day
9h 00m
First Quarter, 62% of the Moon is Illuminated
Nov 21
First Quarter
Nov 28
Full
Dec 6
Last Quarter
Dec 13
New
Dec 19
First Quarter

Hourly Weather History & Observations

Time (CST) Temp. Windchill Dew Point Humidity Pressure Visibility Wind Dir Wind Speed Gust Speed Precip Events Conditions
12:17 AM 37.4 °F 34.9 °F 26.6 °F 65% 29.95 in 10.0 mi South 3.5 mph - N/A   Clear
12:37 AM 37.4 °F 34.9 °F 26.6 °F 65% 29.95 in 10.0 mi South 3.5 mph - N/A   Clear
12:56 AM 37.4 °F 34.9 °F 28.4 °F 70% 29.94 in 10.0 mi SSE 3.5 mph - N/A   Clear
1:17 AM 37.4 °F 32.8 °F 28.4 °F 70% 29.94 in 10.0 mi SSE 5.8 mph - N/A   Clear
1:37 AM 37.4 °F 33.8 °F 28.4 °F 70% 29.93 in 10.0 mi South 4.6 mph - N/A   Clear
1:56 AM 37.4 °F 32.8 °F 28.4 °F 70% 29.93 in 10.0 mi SSE 5.8 mph - N/A   Clear
2:17 AM 37.4 °F 32.8 °F 28.4 °F 70% 29.92 in 10.0 mi SSE 5.8 mph - N/A   Clear
2:37 AM 35.6 °F - 28.4 °F 75% 29.92 in 10.0 mi Calm Calm - N/A   Clear
2:56 AM 35.6 °F 31.7 °F 28.4 °F 75% 29.91 in 10.0 mi SSE 4.6 mph - N/A   Clear
3:17 AM 37.4 °F 33.8 °F 28.4 °F 70% 29.90 in 10.0 mi South 4.6 mph - N/A   Clear
3:37 AM 35.6 °F - 28.4 °F 75% 29.90 in 10.0 mi Calm Calm - N/A   Clear
3:56 AM 33.8 °F - 28.4 °F 81% 29.90 in 10.0 mi Calm Calm - N/A   Clear
4:17 AM 33.8 °F - 28.4 °F 81% 29.89 in 10.0 mi Calm Calm - N/A   Clear
4:37 AM 35.6 °F 30.7 °F 28.4 °F 75% 29.89 in 10.0 mi SSE 5.8 mph - N/A   Clear
4:56 AM 35.6 °F 32.8 °F 28.4 °F 75% 29.89 in 10.0 mi South 3.5 mph - N/A   Clear
5:16 AM 35.6 °F 32.8 °F 30.2 °F 81% 29.89 in 10.0 mi SSE 3.5 mph - N/A   Clear
5:37 AM 35.6 °F 32.8 °F 30.2 °F 81% 29.88 in 10.0 mi SSE 3.5 mph - N/A   Clear
5:56 AM 35.6 °F 32.8 °F 30.2 °F 81% 29.88 in 10.0 mi South 3.5 mph - N/A   Clear
6:16 AM 35.6 °F - 30.2 °F 81% 29.89 in 10.0 mi Calm Calm - N/A   Clear
6:37 AM 33.8 °F 30.8 °F 28.4 °F 81% 29.89 in 10.0 mi South 3.5 mph - N/A   Clear
6:56 AM 35.6 °F - 30.2 °F 81% 29.90 in 10.0 mi Calm Calm - N/A   Clear
7:17 AM 30.2 °F - 28.4 °F 93% 29.90 in 10.0 mi Calm Calm - N/A   Clear
7:37 AM 30.2 °F - 28.4 °F 93% 29.90 in 7.0 mi Calm Calm - N/A   Clear
7:56 AM 32.0 °F - 28.4 °F 87% 29.89 in 10.0 mi Calm Calm - N/A   Clear
8:17 AM 30.2 °F - 28.4 °F 93% 29.89 in 10.0 mi Calm Calm - N/A   Clear
8:37 AM 33.8 °F - 30.2 °F 87% 29.89 in 10.0 mi Calm Calm - N/A   Clear
8:56 AM 33.8 °F - 30.2 °F 87% 29.89 in 10.0 mi Calm Calm - N/A   Clear
9:17 AM 35.6 °F - 30.2 °F 81% 29.90 in 10.0 mi Calm Calm - N/A   Clear
9:37 AM 35.6 °F - 30.2 °F 81% 29.89 in 10.0 mi Calm Calm - N/A   Clear
9:56 AM 37.4 °F - 32.0 °F 81% 29.89 in 10.0 mi Calm Calm - N/A   Clear
10:17 AM 39.2 °F - 32.0 °F 75% 29.89 in 10.0 mi Calm Calm - N/A   Clear
10:36 AM 41.0 °F 39.0 °F 32.0 °F 70% 29.88 in 10.0 mi South 3.5 mph - N/A   Clear
10:57 AM 42.8 °F 41.1 °F 32.0 °F 66% 29.88 in 10.0 mi SSW 3.5 mph - N/A   Clear
11:17 AM 42.8 °F - 33.8 °F 70% 29.87 in 10.0 mi Calm Calm - N/A   Clear
11:36 AM 44.6 °F - 33.8 °F 66% 29.87 in 10.0 mi Calm Calm - N/A   Clear
11:57 AM 44.6 °F 42.2 °F 33.8 °F 66% 29.86 in 10.0 mi SSW 4.6 mph - N/A   Clear
12:17 PM 46.4 °F 44.3 °F 33.8 °F 62% 29.85 in 10.0 mi SSE 4.6 mph - N/A   Clear
12:36 PM 46.4 °F - 33.8 °F 62% 29.85 in 10.0 mi Calm Calm - N/A   Clear
12:57 PM 48.2 °F - 33.8 °F 58% 29.84 in 10.0 mi SE 3.5 mph - N/A   Clear
1:17 PM 50.0 °F - 33.8 °F 54% 29.83 in 10.0 mi SE 3.5 mph - N/A   Clear
1:36 PM 51.8 °F - 33.8 °F 50% 29.82 in 10.0 mi Calm Calm - N/A   Clear
1:57 PM 51.8 °F - 35.6 °F 54% 29.83 in 10.0 mi SSE 3.5 mph - N/A   Clear
2:17 PM 51.8 °F - 35.6 °F 54% 29.83 in 10.0 mi SSE 4.6 mph - N/A   Clear
2:36 PM 51.8 °F - 35.6 °F 54% 29.83 in 10.0 mi Calm Calm - N/A   Clear
2:57 PM 51.8 °F - 35.6 °F 54% 29.81 in 10.0 mi Calm Calm - N/A   Clear
3:17 PM 51.8 °F - 35.6 °F 54% 29.81 in 10.0 mi Calm Calm - N/A   Clear
3:36 PM 53.6 °F - 35.6 °F 51% 29.81 in 10.0 mi SSE 4.6 mph - N/A   Clear
3:57 PM 51.8 °F - 35.6 °F 54% 29.80 in 10.0 mi SE 5.8 mph - N/A   Clear
4:16 PM 50.0 °F - 35.6 °F 58% 29.80 in 10.0 mi SE 5.8 mph - N/A   Clear
4:36 PM 48.2 °F - 35.6 °F 62% 29.79 in 10.0 mi SE 4.6 mph - N/A   Clear
4:57 PM 44.6 °F 41.4 °F 33.8 °F 66% 29.79 in 10.0 mi SSE 5.8 mph - N/A   Clear
5:16 PM 44.6 °F 42.2 °F 33.8 °F 66% 29.79 in 10.0 mi SE 4.6 mph - N/A   Clear
5:36 PM 44.6 °F - 33.8 °F 66% 29.78 in 10.0 mi Calm Calm - N/A   Clear
5:57 PM 44.6 °F 43.1 °F 33.8 °F 66% 29.77 in 10.0 mi SE 3.5 mph - N/A   Clear
6:16 PM 42.8 °F - 33.8 °F 70% 29.77 in 10.0 mi Calm Calm - N/A   Clear
6:37 PM 42.8 °F 41.1 °F 33.8 °F 70% 29.76 in 10.0 mi SE 3.5 mph - N/A   Clear
6:57 PM 42.8 °F - 33.8 °F 70% 29.76 in 10.0 mi Calm Calm - N/A   Clear
7:16 PM 41.0 °F - 33.8 °F 76% 29.75 in 10.0 mi Calm Calm - N/A   Clear
7:37 PM 39.2 °F 37.0 °F 32.0 °F 75% 29.74 in 10.0 mi ESE 3.5 mph - N/A   Clear
7:56 PM 37.4 °F 33.8 °F 32.0 °F 81% 29.73 in 10.0 mi ESE 4.6 mph - N/A   Clear
8:16 PM 39.2 °F 37.0 °F 33.8 °F 81% 29.71 in 10.0 mi ESE 3.5 mph - N/A   Clear
8:37 PM 39.2 °F 37.0 °F 33.8 °F 81% 29.70 in 10.0 mi ESE 3.5 mph - N/A   Clear
8:56 PM 41.0 °F - 33.8 °F 76% 29.69 in 10.0 mi Calm Calm - N/A   Clear
9:16 PM 37.4 °F 34.9 °F 33.8 °F 87% 29.68 in 10.0 mi ESE 3.5 mph - N/A   Clear
9:37 PM 39.2 °F 37.0 °F 33.8 °F 81% 29.67 in 10.0 mi ESE 3.5 mph - N/A   Clear
9:57 PM 39.2 °F 37.0 °F 35.6 °F 87% 29.65 in 10.0 mi ESE 3.5 mph - N/A   Clear
10:16 PM 41.0 °F 39.0 °F 35.6 °F 81% 29.64 in 10.0 mi East 3.5 mph - N/A   Clear
10:37 PM 42.8 °F 41.1 °F 35.6 °F 76% 29.63 in 10.0 mi East 3.5 mph - N/A   Clear
10:56 PM 42.8 °F 41.1 °F 35.6 °F 76% 29.61 in 10.0 mi ESE 3.5 mph - N/A   Clear
11:17 PM 44.6 °F 40.7 °F 37.4 °F 76% 29.60 in 10.0 mi SSE 6.9 mph - N/A   Clear
11:36 PM 46.4 °F 42.9 °F 37.4 °F 71% 29.59 in 10.0 mi South 6.9 mph 17.3 mph N/A   Clear
11:57 PM 46.4 °F 42.9 °F 37.4 °F 71% 29.58 in 10.0 mi SSE 6.9 mph - N/A   Clear